When you browse on this site, cookies collect data to enhance your experience and personalize the content and advertising you see.
Visit our Privacy Policy to learn more. By continuing to use the site, you agree to this use of cookies and data.
  • In Österreich
  • Länderverzeichnis
  • Für 7 Tage
  • Wassertemperatur
  • Wetterkarte
  • News
  • Widgets
  • user-avatar
    Anmelden

    Stündliche Wetter Samroung

    Heute, 15 Dezember, Sonntag

    Zeit Temperatur Niederschläge Wind Luftdruck Luftfeuchtigkeit
    00:00 +26°C° 0 mm 1 m/S 758 mmHg 77%
    01:00 +26°C° 0 mm 1 m/S 757 mmHg 78%
    02:00 +26°C° 0 mm 1 m/S 757 mmHg 78%
    03:00 +25°C° 0 mm 2 m/S 757 mmHg 79%
    04:00 +25°C° 0 mm 2 m/S 756 mmHg 79%
    05:00 +25°C° 0 mm 2 m/S 757 mmHg 79%
    06:00 +25°C° 0 mm 2 m/S 757 mmHg 79%
    07:00 +25°C° 0 mm 2 m/S 757 mmHg 78%
    08:00 +27°C° 0 mm 2 m/S 758 mmHg 70%
    09:00 +30°C° 0 mm 2 m/S 758 mmHg 61%
    10:00 +32°C° 0 mm 1 m/S 758 mmHg 53%
    11:00 +34°C° 0 mm 2 m/S 758 mmHg 50%
    12:00 +35°C° 0 mm 2 m/S 757 mmHg 48%
    13:00 +36°C° 0 mm 2 m/S 756 mmHg 46%
    14:00 +35°C° 0 mm 2 m/S 756 mmHg 49%
    15:00 +35°C° 0 mm 2 m/S 755 mmHg 52%
    16:00 +34°C° 0 mm 2 m/S 755 mmHg 54%
    17:00 +31°C° 0 mm 2 m/S 755 mmHg 62%
    18:00 +29°C° 0 mm 2 m/S 756 mmHg 69%
    19:00 +28°C° 0 mm 1 m/S 756 mmHg 76%
    20:00 +28°C° 0 mm 1 m/S 756 mmHg 77%
    21:00 +27°C° 0 mm 1 m/S 757 mmHg 78%
    22:00 +27°C° 0 mm 1 m/S 757 mmHg 79%
    23:00 +27°C° 0 mm 1 m/S 757 mmHg 79%

    Morgen, 16 Dezember, Montag

    Zeit Temperatur Niederschläge Wind Luftdruck Luftfeuchtigkeit
    00:00 +27°C° 0 mm 1 m/S 757 mmHg 78%
    01:00 +27°C° 0 mm 1 m/S 757 mmHg 78%
    02:00 +27°C° 0 mm 1 m/S 756 mmHg 79%
    03:00 +26°C° 0 mm 1 m/S 756 mmHg 79%
    04:00 +26°C° 0 mm 1 m/S 755 mmHg 80%
    05:00 +26°C° 0 mm 1 m/S 756 mmHg 79%
    06:00 +26°C° 0 mm 1 m/S 756 mmHg 79%
    07:00 +26°C° 0 mm 1 m/S 757 mmHg 78%
    08:00 +28°C° 0 mm 1 m/S 757 mmHg 69%
    09:00 +31°C° 0 mm 1 m/S 757 mmHg 60%
    10:00 +33°C° 0 mm 1 m/S 757 mmHg 51%
    11:00 +35°C° 0 mm 2 m/S 757 mmHg 49%
    12:00 +36°C° 0 mm 2 m/S 756 mmHg 47%
    13:00 +36°C° 0 mm 2 m/S 756 mmHg 45%
    14:00 +36°C° 0 mm 2 m/S 755 mmHg 49%
    15:00 +35°C° 0 mm 2 m/S 755 mmHg 52%
    16:00 +34°C° 0 mm 2 m/S 754 mmHg 56%
    17:00 +31°C° 0.1 mm 1 m/S 755 mmHg 64%
    18:00 +29°C° 0.1 mm 1 m/S 755 mmHg 73%
    19:00 +25°C° 0.1 mm 0 m/S 756 mmHg 81%
    20:00 +25°C° 0.1 mm 0 m/S 757 mmHg 82%
    21:00 +25°C° 0.1 mm 0 m/S 757 mmHg 83%
    22:00 +27°C° 0.1 mm 1 m/S 757 mmHg 84%
    23:00 +27°C° 0.1 mm 1 m/S 757 mmHg 85%

    übermorgen, 17 Dezember, Dienstag

    Zeit Temperatur Niederschläge Wind Luftdruck Luftfeuchtigkeit
    00:00 +26°C° 0.1 mm 1 m/S 757 mmHg 87%
    01:00 +26°C° 0.1 mm 1 m/S 757 mmHg 88%
    02:00 +26°C° 0 mm 1 m/S 756 mmHg 88%
    03:00 +26°C° 0 mm 1 m/S 756 mmHg 89%
    04:00 +25°C° 0 mm 1 m/S 756 mmHg 89%
    05:00 +26°C° 0 mm 1 m/S 756 mmHg 87%
    06:00 +26°C° 0 mm 1 m/S 756 mmHg 86%
    07:00 +26°C° 0 mm 1 m/S 757 mmHg 85%
    08:00 +29°C° 0 mm 1 m/S 757 mmHg 74%
    09:00 +31°C° 0 mm 1 m/S 757 mmHg 63%
    10:00 +34°C° 0 mm 1 m/S 758 mmHg 52%
    11:00 +34°C° 0 mm 1 m/S 757 mmHg 50%
    12:00 +36°C° 0 mm 2 m/S 756 mmHg 48%
    13:00 +36°C° 0 mm 2 m/S 756 mmHg 47%
    14:00 +36°C° 0 mm 2 m/S 755 mmHg 48%
    15:00 +35°C° 0 mm 2 m/S 755 mmHg 50%
    16:00 +35°C° 0 mm 2 m/S 754 mmHg 52%
    17:00 +32°C° 0.1 mm 2 m/S 755 mmHg 61%
    18:00 +30°C° 0.1 mm 1 m/S 755 mmHg 69%
    19:00 +28°C° 0.1 mm 1 m/S 756 mmHg 78%
    20:00 +28°C° 0 mm 1 m/S 757 mmHg 80%
    21:00 +27°C° 0 mm 1 m/S 757 mmHg 82%
    22:00 +27°C° 0 mm 1 m/S 758 mmHg 85%
    23:00 +27°C° 0 mm 1 m/S 757 mmHg 85%

    18 Dezember, Mittwoch

    Zeit Temperatur Niederschläge Wind Luftdruck Luftfeuchtigkeit
    00:00 +26°C° 0 mm 2 m/S 757 mmHg 86%
    01:00 +26°C° 0 mm 2 m/S 757 mmHg 87%
    02:00 +26°C° 0 mm 2 m/S 756 mmHg 85%
    03:00 +25°C° 0 mm 2 m/S 756 mmHg 84%
    04:00 +25°C° 0 mm 2 m/S 756 mmHg 82%
    05:00 +25°C° 0 mm 2 m/S 756 mmHg 81%
    06:00 +25°C° 0 mm 2 m/S 757 mmHg 80%
    07:00 +26°C° 0 mm 2 m/S 757 mmHg 79%
    08:00 +28°C° 0 mm 1 m/S 758 mmHg 69%
    09:00 +31°C° 0 mm 1 m/S 758 mmHg 59%
    10:00 +34°C° 0 mm 1 m/S 758 mmHg 48%
    11:00 +35°C° 0 mm 2 m/S 758 mmHg 45%
    12:00 +36°C° 0 mm 2 m/S 757 mmHg 42%
    13:00 +36°C° 0 mm 2 m/S 756 mmHg 39%
    14:00 +36°C° 0 mm 2 m/S 756 mmHg 42%
    15:00 +35°C° 0 mm 2 m/S 755 mmHg 45%
    16:00 +34°C° 0 mm 2 m/S 755 mmHg 48%
    17:00 +31°C° 0 mm 2 m/S 755 mmHg 57%
    18:00 +29°C° 0 mm 1 m/S 756 mmHg 67%
    19:00 +27°C° 0 mm 1 m/S 756 mmHg 76%
    20:00 +26°C° 0 mm 1 m/S 757 mmHg 79%
    21:00 +26°C° 0 mm 1 m/S 757 mmHg 82%
    22:00 +26°C° 0 mm 2 m/S 758 mmHg 84%
    23:00 +26°C° 0 mm 2 m/S 758 mmHg 85%

    19 Dezember, Donnerstag

    Zeit Temperatur Niederschläge Wind Luftdruck Luftfeuchtigkeit
    00:00 +25°C° 0 mm 1 m/S 757 mmHg 86%
    01:00 +25°C° 0 mm 1 m/S 757 mmHg 87%
    02:00 +25°C° 0 mm 1 m/S 757 mmHg 86%
    03:00 +25°C° 0 mm 1 m/S 756 mmHg 85%
    04:00 +24°C° 0 mm 1 m/S 756 mmHg 84%
    05:00 +25°C° 0 mm 1 m/S 756 mmHg 84%
    06:00 +25°C° 0 mm 1 m/S 757 mmHg 84%
    07:00 +23°C° 0 mm 0 m/S 757 mmHg 85%
    08:00 +26°C° 0 mm 0 m/S 758 mmHg 74%
    09:00 +29°C° 0 mm 0 m/S 758 mmHg 64%
    10:00 +31°C° 0 mm 0 m/S 758 mmHg 53%
    11:00 +34°C° 0 mm 1 m/S 758 mmHg 51%
    12:00 +35°C° 0 mm 2 m/S 757 mmHg 49%
    13:00 +35°C° 0 mm 2 m/S 756 mmHg 47%
    14:00 +35°C° 0 mm 2 m/S 756 mmHg 51%
    15:00 +34°C° 0 mm 2 m/S 755 mmHg 56%
    16:00 +32°C° 0 mm 2 m/S 755 mmHg 60%
    17:00 +30°C° 0 mm 2 m/S 755 mmHg 68%
    18:00 +28°C° 0 mm 1 m/S 756 mmHg 76%
    19:00 +24°C° 0 mm 0 m/S 756 mmHg 84%
    20:00 +26°C° 0 mm 1 m/S 757 mmHg 86%
    21:00 +26°C° 0 mm 1 m/S 757 mmHg 87%
    22:00 +26°C° 0 mm 1 m/S 757 mmHg 88%
    23:00 +26°C° 0 mm 1 m/S 757 mmHg 89%

    20 Dezember, Freitag

    Zeit Temperatur Niederschläge Wind Luftdruck Luftfeuchtigkeit
    00:00 +25°C° 0 mm 1 m/S 757 mmHg 90%
    01:00 +25°C° 0 mm 1 m/S 757 mmHg 91%
    02:00 +25°C° 0 mm 1 m/S 756 mmHg 92%
    03:00 +25°C° 0 mm 1 m/S 756 mmHg 92%
    04:00 +25°C° 0 mm 1 m/S 756 mmHg 93%
    05:00 +25°C° 0 mm 1 m/S 756 mmHg 90%
    06:00 +25°C° 0 mm 1 m/S 756 mmHg 88%
    07:00 +26°C° 0 mm 1 m/S 757 mmHg 85%
    08:00 +28°C° 0 mm 1 m/S 757 mmHg 74%
    09:00 +31°C° 0 mm 2 m/S 757 mmHg 63%
    10:00 +34°C° 0 mm 2 m/S 758 mmHg 52%
    11:00 +34°C° 0 mm 2 m/S 757 mmHg 52%
    12:00 +34°C° 0 mm 2 m/S 756 mmHg 53%
    13:00 +34°C° 0 mm 2 m/S 755 mmHg 53%
    14:00 +34°C° 0 mm 2 m/S 755 mmHg 54%
    15:00 +34°C° 0 mm 2 m/S 754 mmHg 55%
    16:00 +34°C° 0 mm 2 m/S 754 mmHg 56%
    17:00 +31°C° 0 mm 2 m/S 754 mmHg 66%
    18:00 +29°C° 0 mm 1 m/S 755 mmHg 75%
    19:00 +25°C° 0 mm 0 m/S 755 mmHg 85%
    20:00 +27°C° 0 mm 1 m/S 756 mmHg 86%
    21:00 +27°C° 0 mm 1 m/S 756 mmHg 87%
    22:00 +26°C° 0 mm 1 m/S 757 mmHg 88%
    23:00 +26°C° 0.1 mm 1 m/S 756 mmHg 90%
    Mehr zeigen